Date String (YYYY-MM-DD hh:mm:ss) UTC,Instrument flags,Ambient pressure (hPa),Sample flow (lpm),Bypass flow (lpm),Sample temperature (°C),Ambient temperature (°C),ASC tube jacket temperature (°C),LED temperature (°C),Box temperature (°C),Sample RH (%),Span deviation,Mass concentration (μg/m³),Mass concentration (μg/m³),Mass concentration (μg/m³)
DateTimeUTC,F1_M11,P_M11,Q1_M11,Q2_M11,T1_M11,T2_M11,T3_M11,T4_M11,T5_M11,U1_M11,ZSPAN_M11,X0_M11,X2_M11,X1_M11
2022-03-16 01:00:00,,0823.9,5.00,0.00,29.0,28.3,00.0,37.9,30.8,04.7,0000.0,0001.56,0000.84,0000.52
2022-03-16 01:01:00,,0823.9,5.00,0.00,29.0,28.3,00.0,37.9,30.8,04.7,0000.0,0001.64,0000.86,0000.53
2022-03-16 01:02:00,,0823.9,5.02,0.00,29.0,28.3,00.0,37.9,30.8,04.7,0000.0,0001.72,0000.91,0000.54
2022-03-16 01:03:00,,0823.9,4.99,0.00,29.0,28.4,00.0,37.9,30.8,04.7,0000.0,0001.76,0000.93,0000.54
2022-03-16 01:04:00,,0823.8,4.99,0.00,29.0,28.3,00.0,37.9,30.8,04.8,0000.0,0001.70,0000.93,0000.54
2022-03-16 01:05:00,,0823.8,5.01,0.00,29.0,28.3,00.0,37.9,30.8,04.9,0000.0,0001.78,0000.94,0000.54
2022-03-16 01:06:00,,0823.8,4.99,0.00,29.0,28.3,00.0,37.9,30.8,05.0,0000.0,0001.81,0000.92,0000.53
2022-03-16 01:07:00,,0823.8,4.99,0.00,29.0,28.3,00.0,37.9,30.7,04.8,0000.0,0001.98,0000.97,0000.53
2022-03-16 01:08:00,,0823.8,5.01,0.00,29.0,28.3,00.0,37.9,30.7,05.0,0000.0,0002.04,0000.98,0000.54
2022-03-16 01:09:00,,0823.7,5.00,0.00,29.0,28.3,00.0,37.9,30.7,05.0,0000.0,0002.07,0001.00,0000.54
2022-03-16 01:10:00,,0823.7,4.99,0.00,29.0,28.3,00.0,37.9,30.7,04.9,0000.0,0002.14,0001.04,0000.54
2022-03-16 01:11:00,,0823.6,5.00,0.00,29.0,28.2,00.0,37.9,30.7,04.9,0000.0,0002.08,0001.02,0000.53
2022-03-16 01:12:00,,0823.7,5.01,0.00,29.0,28.2,00.0,37.9,30.7,05.0,0000.0,0001.89,0000.95,0000.52
2022-03-16 01:13:00,,0823.7,4.99,0.00,29.0,28.2,00.0,37.9,30.7,04.9,0000.0,0001.90,0000.96,0000.51
2022-03-16 01:14:00,,0823.7,5.00,0.00,29.0,28.2,00.0,37.9,30.7,04.8,0000.0,0001.89,0000.95,0000.50
2022-03-16 01:15:00,,0823.6,5.02,0.00,29.0,28.2,00.0,37.9,30.7,04.8,0000.0,0001.88,0000.93,0000.50
2022-03-16 01:16:00,,0823.7,4.99,0.00,29.0,28.2,00.0,37.9,30.7,04.9,0000.0,0001.81,0000.93,0000.51
2022-03-16 01:17:00,,0823.6,4.98,0.00,29.0,28.2,00.0,37.9,30.7,04.9,0000.0,0001.64,0000.91,0000.51
2022-03-16 01:18:00,,0823.7,5.01,0.00,28.9,28.2,00.0,37.9,30.7,05.0,0000.0,0001.45,0000.86,0000.51
2022-03-16 01:19:00,,0823.7,5.00,0.00,28.9,28.1,00.0,37.9,30.7,05.0,0000.0,0001.38,0000.83,0000.50
2022-03-16 01:20:00,,0823.6,4.99,0.00,28.9,28.1,00.0,37.9,30.6,05.1,0000.0,0001.35,0000.80,0000.49
2022-03-16 01:21:00,,0823.6,5.01,0.00,28.9,28.1,00.0,37.9,30.6,05.0,0000.0,0001.35,0000.80,0000.49
2022-03-16 01:22:00,,0823.6,5.01,0.00,28.9,28.1,00.0,37.9,30.6,05.1,0000.0,0001.45,0000.84,0000.50
2022-03-16 01:23:00,,0823.6,4.99,0.00,28.9,28.1,00.0,37.9,30.5,05.1,0000.0,0001.61,0000.90,0000.49
2022-03-16 01:24:00,,0823.6,5.00,0.00,28.9,28.1,00.0,37.9,30.5,05.1,0000.0,0001.60,0000.86,0000.50
2022-03-16 01:25:00,,0823.6,5.02,0.00,28.9,28.0,00.0,37.9,30.5,05.0,0000.0,0001.67,0000.85,0000.50
2022-03-16 01:26:00,,0823.6,4.99,0.00,28.9,28.0,00.0,37.9,30.5,05.0,0000.0,0001.77,0000.84,0000.50
2022-03-16 01:27:00,,0823.6,4.98,0.00,28.9,28.0,00.0,37.9,30.5,05.1,0000.0,0001.87,0000.85,0000.50
2022-03-16 01:28:00,,0823.6,5.01,0.00,28.8,28.0,00.0,37.9,30.4,05.1,0000.0,0001.87,0000.85,0000.50
2022-03-16 01:29:00,,0823.6,5.01,0.00,28.8,28.0,00.0,37.9,30.5,05.1,0000.0,0002.82,0000.87,0000.49
2022-03-16 01:30:00,,0823.6,4.99,0.00,28.8,28.0,00.0,37.9,30.5,04.9,0000.0,0003.14,0000.89,0000.50
2022-03-16 01:31:00,,0823.6,4.99,0.00,28.8,28.0,00.0,37.8,30.4,05.1,0000.0,0003.19,0000.92,0000.50
2022-03-16 01:32:00,,0823.6,5.01,0.00,28.8,28.0,00.0,37.8,30.4,05.2,0000.0,0003.23,0000.93,0000.51
2022-03-16 01:33:00,,0823.6,5.00,0.00,28.8,28.0,00.0,37.8,30.4,05.2,0000.0,0003.25,0000.95,0000.51
2022-03-16 01:34:00,,0823.6,4.99,0.00,28.8,28.0,00.0,37.8,30.4,05.2,0000.0,0003.21,0000.94,0000.52
2022-03-16 01:35:00,,0823.6,5.00,0.00,28.8,28.0,00.0,37.8,30.4,05.0,0000.0,0003.22,0000.95,0000.52
2022-03-16 01:36:00,,0823.6,5.01,0.00,28.8,28.0,00.0,37.8,30.4,05.1,0000.0,0003.10,0000.93,0000.52
2022-03-16 01:37:00,,0823.6,4.99,0.00,28.8,28.0,00.0,37.8,30.5,05.1,0000.0,0002.95,0000.92,0000.52
2022-03-16 01:38:00,,0823.6,5.00,0.00,28.8,28.0,00.0,37.8,30.5,05.2,0000.0,0002.99,0000.95,0000.52
2022-03-16 01:39:00,,0823.6,5.01,0.00,28.8,28.0,00.0,37.8,30.5,05.2,0000.0,0003.06,0000.97,0000.52
2022-03-16 01:40:00,,0823.6,4.99,0.00,28.8,28.0,00.0,37.8,30.5,05.2,0000.0,0002.36,0000.99,0000.53
2022-03-16 01:41:00,,0823.6,5.01,0.00,28.8,28.0,00.0,37.8,30.5,05.2,0000.0,0001.96,0000.99,0000.53
2022-03-16 01:42:00,,0823.6,5.01,0.00,28.8,28.0,00.0,37.8,30.5,05.2,0000.0,0001.92,0000.98,0000.54
2022-03-16 01:43:00,,0823.6,4.99,0.00,28.8,28.0,00.0,37.8,30.5,05.2,0000.0,0001.97,0000.98,0000.53
2022-03-16 01:44:00,,0823.6,5.01,0.00,28.8,28.0,00.0,37.8,30.5,05.2,0000.0,0001.91,0000.95,0000.53
2022-03-16 01:45:00,,0823.7,4.99,0.00,28.8,28.0,00.0,37.8,30.5,05.3,0000.0,0002.24,0000.92,0000.53
2022-03-16 01:46:00,,0823.7,4.99,0.00,28.8,28.1,00.0,37.8,30.6,05.4,0000.0,0002.89,0000.87,0000.53
2022-03-16 01:47:00,,0823.7,5.01,0.00,28.8,28.1,00.0,37.8,30.6,05.5,0000.0,0002.92,0000.89,0000.53
2022-03-16 01:48:00,,0823.7,4.99,0.00,28.8,28.1,00.0,37.8,30.6,05.3,0000.0,0003.02,0000.94,0000.54
2022-03-16 01:49:00,,0823.7,5.01,0.00,28.8,28.0,00.0,37.8,30.5,05.2,0000.0,0002.86,0000.91,0000.53
2022-03-16 01:50:00,,0823.7,4.99,0.00,28.8,28.0,00.0,37.8,30.5,05.2,0000.0,0002.87,0000.93,0000.53
2022-03-16 01:51:00,,0823.7,5.01,0.00,28.8,28.0,00.0,37.8,30.5,05.2,0000.0,0002.84,0000.92,0000.53
2022-03-16 01:52:00,,0823.7,5.00,0.00,28.8,28.0,00.0,37.8,30.5,05.3,0000.0,0002.73,0000.90,0000.53
2022-03-16 01:53:00,,0823.7,4.99,0.00,28.7,27.9,00.0,37.8,30.4,05.2,0000.0,0002.71,0000.89,0000.52
2022-03-16 01:54:00,,0823.7,5.00,0.00,28.7,27.9,00.0,37.8,30.4,05.2,0000.0,0002.67,0000.86,0000.53
2022-03-16 01:55:00,,0823.7,5.01,0.00,28.7,27.9,00.0,37.8,30.4,05.1,0000.0,0002.68,0000.86,0000.53
2022-03-16 01:56:00,,0823.6,4.99,0.00,28.7,27.9,00.0,37.8,30.4,05.3,0000.0,0002.29,0000.89,0000.53
2022-03-16 01:57:00,,0823.7,5.00,0.00,28.7,27.9,00.0,37.7,30.4,05.2,0000.0,0001.58,0000.90,0000.53
2022-03-16 01:58:00,,0823.7,5.01,0.00,28.7,27.9,00.0,37.7,30.4,05.2,0000.0,0001.55,0000.88,0000.53
2022-03-16 01:59:00,,0823.6,5.01,0.00,28.7,27.9,00.0,37.7,30.5,05.2,0000.0,0002.23,0000.86,0000.53
